This is the latest recevied weather packets stored in our database for station/object IZ5MMH-4. If no packets are shown the sender has not sent any weather packets the latest 10 day(s).
| Time | Temp. | Humidity | Pressure | Rain* | Wind** | Luminosity | Snow |
|---|---|---|---|---|---|---|---|
| 1787578463 | 31.67° C | 54% | 1016.3 hPa | - | - | - | - |
| 1787577864 | 32.22° C | 53% | 1016.4 hPa | - | - | - | - |
| 1787577263 | 31.67° C | 53% | 1016.4 hPa | - | - | - | - |
| 1787576664 | 31.67° C | 54% | 1016.5 hPa | - | - | - | - |
| 1787576064 | 31.67° C | 52% | 1016.7 hPa | - | - | - | - |
| 1787575464 | 31.67° C | 52% | 1016.7 hPa | - | - | - | - |
| 1787574863 | 31.11° C | 52% | 1016.7 hPa | - | - | - | - |
| 1787574264 | 31.11° C | 53% | 1016.9 hPa | - | - | - | - |
| 1787573664 | 31.11° C | 53% | 1016.8 hPa | - | - | - | - |
| 1787573063 | 31.11° C | 50% | 1016.9 hPa | - | - | - | - |
| 1787572463 | 31.11° C | 47% | 1017 hPa | - | - | - | - |
| 1787571863 | 31.11° C | 46% | 1017 hPa | - | - | - | - |
| 1787571264 | 31.11° C | 49% | 1017.1 hPa | - | - | - | - |
| 1787570663 | 30.56° C | 47% | 1016.9 hPa | - | - | - | - |
| 1787570063 | 30.56° C | 46% | 1017 hPa | - | - | - | - |
| 1787569464 | 30.56° C | 47% | 1017.1 hPa | - | - | - | - |
| 1787568863 | 30° C | 45% | 1017 hPa | - | - | - | - |
| 1787568264 | 30° C | 47% | 1017 hPa | - | - | - | - |
| 1787567664 | 30° C | 44% | 1017 hPa | - | - | - | - |
| 1787567063 | 30° C | 47% | 1016.9 hPa | - | - | - | - |
| 1787566464 | 30° C | 48% | 1017.1 hPa | - | - | - | - |
| 1787565864 | 29.44° C | 44% | 1017.1 hPa | - | - | - | - |
| 1787565264 | 29.44° C | 48% | 1017.1 hPa | - | - | - | - |
| 1787564664 | 29.44° C | 50% | 1017.2 hPa | - | - | - | - |
| 1787564064 | 29.44° C | 51% | 1017.2 hPa | - | - | - | - |
* Rain since midnight (hover to see other rain measurements)
** Current wind speed in m/s (hover to see current wind gust speed)